Vagabond Aaf / Yakim, WA

2:55 AM PST on November 19, 2017 (GMT -0800)
Vagabond Aaf / Yakim

Weather History for K1YT - December, 2013

Change the Weather History Date:

Friday, December 27, 2013

  Actual Average (KYKM) Record (KYKM)
Temperature  
Mean Temperature 26 °F -  
Max Temperature 34 °F 36 °F 62 °F (1980)
Min Temperature 17 °F 20 °F -2 °F (1948)
Degree Days  
Heating Degree Days 40    
Moisture  
Dew Point 22 °F    
Average Humidity 90    
Maximum Humidity 98    
Minimum Humidity 74    
Precipitation  
Precipitation 0.00 in - - ()
Sea Level Pressure  
Sea Level Pressure 30.20 in    
Wind  
Wind Speed 2 mph (SW)    
Max Wind Speed 7 mph    
Max Gust Speed -    
Visibility 8 miles    
Events      
Averages and records for this station are not official NWS values.
T = Trace of Precipitation, MM = Missing Value Source: NWS Daily Summary

Daily Weather History Graph

Daily Weather History Graph

Search for Another Location

Airport or City:

Trip Planner

Search our weather history database for the weather conditions in past years. The results will help you decide how hot, cold, wet, or windy it might be!

Date:

Astronomy

Dec. 27, 2013 Rise Set
Actual Time 7:45 AM PST 4:20 PM PST
Civil Twilight 7:10 AM PST 4:55 PM PST
Nautical Twilight 6:32 AM PST 5:34 PM PST
Astronomical Twilight 5:55 AM PST 6:11 PM PST
Moon 2:10 AM PST (12/27) 12:45 PM PST (12/27)
Length of Visible Light 9h 45m
Length of Day
8h 34m
Waning Crescent, 27% of the Moon is Illuminated
Dec 27
Waning Crescent
Jan 1
New
Jan 7
First Quarter
Jan 15
Full
Jan 23
Last Quarter

Hourly Weather History & Observations

Time (PST) Temp. Windchill Dew Point Humidity Pressure Visibility Wind Dir Wind Speed Gust Speed Precip Events Conditions
12:56 AM 21.9 °F - 20.1 °F 93% 30.28 in 10.0 mi West 2.3 mph - N/A   Clear
1:56 AM 19.8 °F - 18.1 °F 93% 30.27 in 7.0 mi ESE 1.2 mph - N/A   Clear
2:56 AM 18.7 °F - 17.6 °F 96% 30.27 in 5.0 mi SW 1.2 mph - N/A   Clear
3:56 AM 20.1 °F - 19.6 °F 98% 30.26 in 5.0 mi North 1.2 mph - N/A   Clear
4:56 AM 21.4 °F - 19.2 °F 91% 30.24 in 8.0 mi NNW 2.3 mph - N/A   Clear
5:56 AM 17.8 °F 12.5 °F 16.3 °F 94% 30.24 in 4.0 mi SW 3.5 mph - N/A   Clear
6:56 AM 19.0 °F - 16.7 °F 91% 30.23 in 7.0 mi WNW 2.3 mph - N/A   Clear
7:56 AM 19.2 °F - 18.0 °F 95% 30.21 in 5.0 mi SSE 1.2 mph - N/A   Scattered Clouds
8:56 AM 20.5 °F - 19.4 °F 96% 30.21 in 6.0 mi East 1.2 mph - N/A   Scattered Clouds
9:56 AM 20.1 °F 15.2 °F 19.2 °F 96% 30.22 in 4.0 mi SSW 3.5 mph - N/A   Clear
10:56 AM 24.6 °F 18.8 °F 23.2 °F 94% 30.19 in 7.0 mi West 4.6 mph - N/A   Clear
11:56 AM 26.1 °F - 23.9 °F 92% 30.16 in 8.0 mi NNW 1.2 mph - N/A   Partly Cloudy
12:56 PM 29.3 °F 25.6 °F 25.9 °F 87% 30.13 in 10.0 mi West 3.5 mph - N/A   Scattered Clouds
1:56 PM 34.2 °F 31.2 °F 26.6 °F 74% 30.11 in 12.0 mi Variable 3.5 mph - N/A   Clear
2:56 PM 33.3 °F 28.9 °F 26.1 °F 75% 30.11 in 12.0 mi West 4.6 mph - N/A   Clear
3:56 PM 32.2 °F - 25.2 °F 75% 30.12 in 12.0 mi ESE 1.2 mph - N/A   Clear
4:56 PM 26.8 °F 21.4 °F 23.4 °F 87% 30.12 in 12.0 mi East 4.6 mph - N/A   Clear
5:56 PM 27.9 °F - 23.7 °F 84% 30.14 in 9.0 mi Variable 2.3 mph - N/A   Partly Cloudy
6:56 PM 26.1 °F - 23.2 °F 89% 30.17 in 10.0 mi West 1.2 mph - N/A   Clear
7:56 PM 25.2 °F 18.3 °F 23.2 °F 92% 30.20 in 7.0 mi South 5.8 mph - N/A   Clear
8:56 PM 25.5 °F - 23.7 °F 93% 30.23 in 10.0 mi NNE 1.2 mph - N/A   Mostly Cloudy
9:56 PM 22.6 °F 15.3 °F 21.4 °F 95% 30.26 in 5.0 mi SW 5.8 mph - N/A   Clear
10:56 PM 24.1 °F - 22.8 °F 95% 30.26 in 8.0 mi Variable 1.2 mph - N/A   Clear
11:56 PM 32.2 °F 25.8 °F 27.0 °F 81% 30.27 in 12.0 mi ESE 6.9 mph - N/A   Clear